カタログに戻る

GLOBALSTAR M085

運用中通信LEO
NORAD 37742·PAYLOAD·🇺🇸 United States

打ち上げ Jul 13, 2011 から Baikonur Cosmodrome

Loading…

次のパス (今後24時間)

TLE

最新Source: Space-Track

元期: Sep 14, 2026, 12:45 UTC

1 37742U 11033D   26257.53169774 -.00000099  00000-0  25841-4 0  9998
2 37742  52.0120 281.2848 0000476 115.5902  48.9601 12.62265280701075

AllMySatでGLOBALSTAR M085をリアルタイム追跡

Download on the App Store